| time (UTC) | temp F | wind direction | speed MPH | gust MPH | rain 1hr in | rain 24hr in | rain mn in | humidity % | barometer mb |
| 20260507004801 | 52 | 50 | 10.0 | 0.0 | 0.00 | 0.00 | 0.00 | 82 | 1015.0 |
| 20260507003302 | 52 | 50 | 10.0 | 0.0 | 0.00 | 0.00 | 0.00 | 82 | 1015.0 |
| 20260507001802 | 52 | 30 | 8.0 | 0.0 | 0.00 | 0.00 | 0.00 | 82 | 1015.0 |
| 20260507000302 | 52 | 30 | 8.0 | 0.0 | 0.00 | 0.00 | 0.00 | 82 | 1015.0 |
| 20260506234802 | 54 | 30 | 7.0 | 0.0 | 0.00 | 0.00 | 0.00 | 77 | 1015.0 |
| 20260506233302 | 54 | 30 | 7.0 | 0.0 | 0.00 | 0.00 | 0.00 | 77 | 1015.0 |
| 20260506231802 | 54 | 30 | 7.0 | 0.0 | 0.00 | 0.00 | 0.00 | 77 | 1016.0 |
| 20260506230302 | 54 | 30 | 7.0 | 0.0 | 0.00 | 0.00 | 0.00 | 77 | 1016.0 |
| 20260506224801 | 54 | 40 | 7.0 | 0.0 | 0.00 | 0.00 | 0.00 | 77 | 1016.0 |
| 20260506223302 | 54 | 40 | 7.0 | 0.0 | 0.00 | 0.00 | 0.00 | 77 | 1016.0 |
| 20260506221801 | 54 | 70 | 7.0 | 0.0 | 0.00 | 0.00 | 0.00 | 77 | 1015.0 |
| 20260506220301 | 54 | 70 | 7.0 | 0.0 | 0.00 | 0.00 | 0.00 | 77 | 1015.0 |
| 20260506214818 | 61 | 100 | 7.0 | 0.0 | 0.00 | 0.00 | 0.00 | 48 | 1015.0 |
| 20260506213302 | 61 | 100 | 7.0 | 0.0 | 0.00 | 0.00 | 0.00 | 48 | 1015.0 |
| 20260506211802 | 61 | 130 | 8.0 | 0.0 | 0.00 | 0.00 | 0.00 | 55 | 1015.0 |
| 20260506210301 | 61 | 130 | 8.0 | 0.0 | 0.00 | 0.00 | 0.00 | 55 | 1015.0 |
| 20260506204802 | 61 | 130 | 8.0 | 0.0 | 0.00 | 0.00 | 0.00 | 55 | 1015.0 |
| 20260506203302 | 61 | 130 | 8.0 | 0.0 | 0.00 | 0.00 | 0.00 | 55 | 1015.0 |
| 20260506201802 | 61 | 120 | 7.0 | 0.0 | 0.00 | 0.00 | 0.00 | 59 | 1015.0 |
| 20260506200302 | 61 | 120 | 7.0 | 0.0 | 0.00 | 0.00 | 0.00 | 59 | 1015.0 |
| 20260506194821 | 63 | 120 | 8.0 | 0.0 | 0.00 | 0.00 | 0.00 | 56 | 1015.0 |
| 20260506193325 | 63 | 120 | 8.0 | 0.0 | 0.00 | 0.00 | 0.00 | 56 | 1015.0 |
| 20260506191802 | 64 | 110 | 9.0 | 0.0 | 0.00 | 0.00 | 0.00 | 52 | 1014.0 |
| 20260506190302 | 64 | 110 | 9.0 | 0.0 | 0.00 | 0.00 | 0.00 | 52 | 1014.0 |
| 20260506184807 | 64 | 100 | 10.0 | 0.0 | 0.00 | 0.00 | 0.00 | 56 | 1014.0 |
| 20260506183302 | 64 | 100 | 10.0 | 0.0 | 0.00 | 0.00 | 0.00 | 56 | 1014.0 |
| 20260506181802 | 66 | 100 | 8.0 | 0.0 | 0.00 | 0.00 | 0.00 | 52 | 1014.0 |
| 20260506180302 | 66 | 100 | 8.0 | 0.0 | 0.00 | 0.00 | 0.00 | 52 | 1014.0 |
| 20260506174802 | 66 | 100 | 8.0 | 0.0 | 0.00 | 0.00 | 0.00 | 52 | 1014.0 |
| 20260506173302 | 66 | 100 | 8.0 | 0.0 | 0.00 | 0.00 | 0.00 | 52 | 1014.0 |
| 20260506171802 | 72 | 110 | 10.0 | 0.0 | 0.00 | 0.00 | 0.00 | 41 | 1014.0 |
| 20260506170301 | 72 | 110 | 10.0 | 0.0 | 0.00 | 0.00 | 0.00 | 41 | 1014.0 |
| 20260506164802 | 73 | 110 | 11.0 | 0.0 | 0.00 | 0.00 | 0.00 | 36 | 1013.0 |
| 20260506163302 | 73 | 110 | 11.0 | 0.0 | 0.00 | 0.00 | 0.00 | 36 | 1013.0 |
| 20260506161802 | 75 | 100 | 10.0 | 0.0 | 0.00 | 0.00 | 0.00 | 34 | 1013.0 |
| 20260506160302 | 75 | 100 | 10.0 | 0.0 | 0.00 | 0.00 | 0.00 | 34 | 1013.0 |
| 20260506154802 | 75 | 100 | 11.0 | 0.0 | 0.00 | 0.00 | 0.00 | 36 | 1013.0 |
| 20260506153302 | 75 | 100 | 11.0 | 0.0 | 0.00 | 0.00 | 0.00 | 36 | 1013.0 |
| 20260506151801 | 77 | 100 | 11.0 | 0.0 | 0.00 | 0.00 | 0.00 | 34 | 1014.0 |
| 20260506150308 | 77 | 100 | 11.0 | 0.0 | 0.00 | 0.00 | 0.00 | 34 | 1014.0 |
| 20260506144802 | 77 | 90 | 11.0 | 0.0 | 0.00 | 0.00 | 0.00 | 34 | 1014.0 |
| 20260506143313 | 77 | 90 | 11.0 | 0.0 | 0.00 | 0.00 | 0.00 | 34 | 1014.0 |
| 20260506141802 | 77 | 100 | 11.0 | 0.0 | 0.00 | 0.00 | 0.00 | 36 | 1014.0 |
| 20260506140415 | 77 | 100 | 11.0 | 0.0 | 0.00 | 0.00 | 0.00 | 36 | 1014.0 |
| 20260506134827 | 79 | 120 | 6.0 | 0.0 | 0.00 | 0.00 | 0.00 | 34 | 1014.0 |
| 20260506133302 | 79 | 120 | 6.0 | 0.0 | 0.00 | 0.00 | 0.00 | 34 | 1014.0 |
| 20260506131802 | 77 | 90 | 7.0 | 0.0 | 0.00 | 0.00 | 0.00 | 39 | 1014.0 |
| 20260506130311 | 77 | 90 | 7.0 | 0.0 | 0.00 | 0.00 | 0.00 | 39 | 1014.0 |
| 20260506124802 | 77 | 5.0 | 0.0 | 0.00 | 0.00 | 0.00 | 30 | 1014.0 | |
| 20260506123302 | 77 | 5.0 | 0.0 | 0.00 | 0.00 | 0.00 | 30 | 1014.0 | |
| 20260506121802 | 75 | 3.0 | 0.0 | 0.00 | 0.00 | 0.00 | 34 | 1014.0 | |
| 20260506120302 | 75 | 3.0 | 0.0 | 0.00 | 0.00 | 0.00 | 34 | 1014.0 | |
| 20260506114801 | 77 | 100 | 8.0 | 0.0 | 0.00 | 0.00 | 0.00 | 36 | 1015.0 |
| 20260506113302 | 77 | 100 | 8.0 | 0.0 | 0.00 | 0.00 | 0.00 | 36 | 1015.0 |
| 20260506111802 | 75 | 150 | 8.0 | 0.0 | 0.00 | 0.00 | 0.00 | 36 | 1015.0 |
| 20260506110302 | 75 | 150 | 8.0 | 0.0 | 0.00 | 0.00 | 0.00 | 36 | 1015.0 |
| 20260506104802 | 75 | 130 | 9.0 | 0.0 | 0.00 | 0.00 | 0.00 | 36 | 1015.0 |
| 20260506103302 | 75 | 130 | 9.0 | 0.0 | 0.00 | 0.00 | 0.00 | 36 | 1015.0 |
| 20260506101802 | 75 | 160 | 8.0 | 0.0 | 0.00 | 0.00 | 0.00 | 31 | 1015.0 |
| 20260506100302 | 75 | 160 | 8.0 | 0.0 | 0.00 | 0.00 | 0.00 | 31 | 1015.0 |
| 20260506094802 | 75 | 110 | 5.0 | 0.0 | 0.00 | 0.00 | 0.00 | 34 | 1015.0 |
| 20260506093302 | 75 | 110 | 5.0 | 0.0 | 0.00 | 0.00 | 0.00 | 34 | 1015.0 |
| 20260506091802 | 73 | 180 | 5.0 | 0.0 | 0.00 | 0.00 | 0.00 | 38 | 1015.0 |
| 20260506090302 | 73 | 180 | 5.0 | 0.0 | 0.00 | 0.00 | 0.00 | 38 | 1015.0 |
| 20260506084802 | 72 | 110 | 7.0 | 0.0 | 0.00 | 0.00 | 0.00 | 38 | 1015.0 |
| 20260506083302 | 72 | 110 | 7.0 | 0.0 | 0.00 | 0.00 | 0.00 | 38 | 1015.0 |
| 20260506081801 | 70 | 110 | 6.0 | 0.0 | 0.00 | 0.00 | 0.00 | 46 | 1015.0 |
| 20260506080302 | 70 | 110 | 6.0 | 0.0 | 0.00 | 0.00 | 0.00 | 46 | 1015.0 |
| 20260506073302 | 66 | 80 | 5.0 | 0.0 | 0.00 | 0.00 | 0.00 | 52 | 1015.0 |
| 20260506071801 | 63 | 3.0 | 0.0 | 0.00 | 0.00 | 0.00 | 59 | 1015.0 | |
| 20260506070301 | 63 | 3.0 | 0.0 | 0.00 | 0.00 | 0.00 | 59 | 1015.0 | |
| 20260506061802 | 57 | 70 | 5.0 | 0.0 | 0.00 | 0.00 | 0.00 | 67 | 1015.0 |
| 20260506060303 | 57 | 70 | 5.0 | 0.0 | 0.00 | 0.00 | 0.00 | 67 | 1015.0 |
| 20260506050316 | 52 | 40 | 5.0 | 0.0 | 0.00 | 0.00 | 0.00 | 77 | 1015.0 |
| 20260506044817 | 50 | 40 | 6.0 | 0.0 | 0.00 | 0.00 | 0.00 | 82 | 1015.0 |
| 20260506043306 | 50 | 40 | 6.0 | 0.0 | 0.00 | 0.00 | 0.00 | 82 | 1015.0 |
| 20260506041802 | 48 | 50 | 6.0 | 0.0 | 0.00 | 0.00 | 0.00 | 87 | 1015.0 |
| 20260506040302 | 48 | 50 | 6.0 | 0.0 | 0.00 | 0.00 | 0.00 | 87 | 1015.0 |
| 20260506034802 | 48 | 30 | 6.0 | 0.0 | 0.00 | 0.00 | 0.00 | 87 | 1015.0 |
| 20260506033302 | 48 | 30 | 6.0 | 0.0 | 0.00 | 0.00 | 0.00 | 87 | 1015.0 |
| 20260506031802 | 48 | 30 | 5.0 | 0.0 | 0.00 | 0.00 | 0.00 | 87 | 1015.0 |
| 20260506030301 | 48 | 30 | 5.0 | 0.0 | 0.00 | 0.00 | 0.00 | 87 | 1015.0 |
| 20260506024802 | 48 | 50 | 8.0 | 0.0 | 0.00 | 0.00 | 0.00 | 87 | 1014.0 |
| 20260506023302 | 48 | 50 | 8.0 | 0.0 | 0.00 | 0.00 | 0.00 | 87 | 1014.0 |
| 20260506021802 | 48 | 60 | 7.0 | 0.0 | 0.00 | 0.00 | 0.00 | 87 | 1014.0 |
| 20260506020302 | 48 | 60 | 7.0 | 0.0 | 0.00 | 0.00 | 0.00 | 87 | 1014.0 |
| 20260506014801 | 50 | 40 | 6.0 | 0.0 | 0.00 | 0.00 | 0.00 | 88 | 1014.0 |
| 20260506013302 | 50 | 40 | 6.0 | 0.0 | 0.00 | 0.00 | 0.00 | 88 | 1014.0 |
| 20260506011802 | 50 | 70 | 6.0 | 0.0 | 0.00 | 0.00 | 0.00 | 88 | 1014.0 |
| 20260506010302 | 50 | 70 | 6.0 | 0.0 | 0.00 | 0.00 | 0.00 | 88 | 1014.0 |